937  
NZUS93 KARX 261110  
HRRWXR  
 
CURRENT HOURLY OBSERVATIONS ACROSS  
MUCH OF THE UPPER MISSISSIPPI VALLEY  
NATIONAL WEATHER SERVICE LA CROSSE WI  
600 AM CDT WED APR 26 2017  
 
   
..SOUTHEAST MINNESOTA
 
 
 
CITY SKY/WX TMP DP RH WIND PRES REMARKS  
ROCHESTER CLOUDY 52 52 100 N7 29.38F FOG  
ROCHESTER/MAYO CLOUDY 53 54 100 CALM 29.39S  
WINONA CLOUDY 54 52 94 CALM 29.37S  
AUSTIN CLOUDY 52 50 93 NW5 29.38S FOG  
ALBERT LEA DRIZZLE 48 48 100 N10 29.40R  
DODGE CENTER DRIZZLE 48 48 100 NW13 29.39S  
PRESTON CLOUDY 52 51 94 CALM 29.38S FOG  
OWATONNA LGT RAIN 45 43 93 N10 29.42S  
FARIBAULT LGT RAIN 43 43 100 N8 29.44S  

 
   
..ELSEWHERE IN MINNESOTA
 
 
 
CITY SKY/WX TMP DP RH WIND PRES REMARKS  
MINNEAPOLIS LGT RAIN 38 35 89 N17G24 29.48S WCI 28  
INTNL FALLS LGT SNOW 24 19 81 NE13G21 29.81S WCI 12  
DULUTH FRZ RAIN 31 29 92 E13G22 29.62F WCI 21  
RED WING CLOUDY 46 43 87 N8 29.43R  
REDWOOD FALLS CLOUDY 37 34 89 N13G20 29.55S WCI 29  
MANKATO RAIN 41 39 93 N16 29.47R  
WORTHINGTON CLOUDY 35 34 96 NW23 29.58R WCI 23  
FAIRMONT LGT RAIN 40 39 97 NW24 29.48R WCI 29  

 
   
..SOUTHWEST WISCONSIN
 
 
 
CITY SKY/WX TMP DP RH WIND PRES REMARKS  
LA CROSSE CLOUDY 57 55 93 CALM 29.36F  
PRAIRIE DU CHI FOG 57 56 97 CALM 29.35F VSB 1/4  
BOSCOBEL CLOUDY 58 56 93 NE5 29.35F  
LONE ROCK CLOUDY 59 54 83 E8 29.37F  
PLATTEVILLE PTCLDY 59 57 94 SE6 29.38S  
FORT MC COY CLOUDY 51 51 100 CALM 29.38S FOG  
CAMP DOUGLAS FOG 52 52 100 CALM 29.37F VSB 1/2  
MAUSTON-NEW LI CLOUDY 54 53 97 CALM 29.38S  
VIROQUA CLOUDY 55 55 99 E7 29.37S  
WIS DELLS CLOUDY 59 52 77 SE3 29.39S  

 
   
..ELSEWHERE IN WISCONSIN
 
 
 
CITY SKY/WX TMP DP RH WIND PRES REMARKS  
MILWAUKEE CLOUDY 59 53 80 S8 29.46F  
MADISON CLOUDY 63 54 72 S8 29.39F  
GREEN BAY CLOUDY 52 52 100 NE12 29.46F  
EAU CLAIRE CLOUDY 43 41 93 NE13 29.42S  
BLACK RVR FLS CLOUDY 54 54 100 CALM 29.38F FOG  
MEDFORD LGT RAIN 47 47 97 NE8 29.41F  
WAUSAU CLOUDY 53 52 96 E9 29.41F FOG  
WIS RAPIDS CLOUDY 57 56 96 E7 29.41F  
MARSHFIELD CLOUDY 56 54 93 E8 29.39F FOG  
RICE LAKE DRIZZLE 37 35 94 N16 29.49F WCI 27  

 
   
..NORTHEAST IOWA
 
 
 
CITY SKY/WX TMP DP RH WIND PRES REMARKS  
WATERLOO CLOUDY 50 48 93 W13 29.41R  
DUBUQUE MOCLDY 57 55 93 S8 29.38R  
DECORAH CLOUDY 57 55 94 S3 29.35F  
MASON CITY CLOUDY 47 46 97 W15 29.42S  
CHARLES CITY CLOUDY 50 50 100 W9 29.39R  
OELWEIN CLOUDY 55 55 100 W13 29.39S  

 
   
..ELSEWHERE IN IOWA
 
 
 
CITY SKY/WX TMP DP RH WIND PRES REMARKS  
DES MOINES CLOUDY 45 41 86 NW14 29.50R  
IOWA CITY CLOUDY 57 52 83 W12 29.39F  
FORT DODGE CLOUDY 41 36 81 W13G22 29.50R  
MARSHALLTOWN CLOUDY 47 45 93 W21 29.43S  
CEDAR RAPIDS CLOUDY 53 53 100 W9 29.38F FOG  

 
   
..NORTHERN ILLINOIS
 
 
 
CITY SKY/WX TMP DP RH WIND PRES REMARKS  
CHICAGO-OHARE CLOUDY 64 54 69 S14 29.46F  
CHICAGO-MIDWAY CLOUDY 66 56 70 S13 29.47F  
MOLINE LGT RAIN 64 52 64 W6 29.39R  
ROCKFORD MOCLDY 63 53 70 S9 29.42F  
PEORIA CLOUDY 65 53 65 SE12 29.41F  

 
 
NOTE: "FAIR" INDICATES FEW OR NO CLOUDS BELOW 12,000 FEET WITH NO  
SIGNIFICANT WEATHER AND/OR OBSTRUCTIONS TO VISIBILITY. WIND  
SPEEDS ARE IN MILES-PER-HOUR.  
 
 
CLICK HERE TO GO TO PREVIOUS BULLETINS.

The Nexlab WI Page
The Nexlab IA Page
The Nexlab MN Page Main Text Page